Regional Weather Roundup
Issued by NWS Little Rock, AR

Home | Current Version | Previous Version | Text Only | Print | Product List | Glossary On
Versions: 1 2 3 4 5 6 7 8 9 10 11 12 13 14 15 16 17 18 19 20 21 22 23 24 25 26 27 28 29 30 31 32 33 34 35 36 37 38 39 40 41 42 43 44 45 46 47 48
000
ASUS44 KLZK 010705
RWRLZK

WEATHER ROUNDUP FOR ARKANSAS
NATIONAL WEATHER SERVICE LITTLE ROCK AR
100 AM CST SUN MAR 01 2015

NOTE: "FAIR" INDICATES FEW OR NO CLOUDS BELOW 12,000 FEET WITH NO
SIGNIFICANT WEATHER AND/OR OBSTRUCTIONS TO VISIBILITY.

ARZ001-003-010-029-010800-
NORTHWEST ARKANSAS

CITY           SKY/WX    TMP DP  RH WIND       PRES   REMARKS
FAYETTEVILLE   MIX PCPN  31  31 100 CALM      30.31F FOG
FORT SMITH     FRZ RAIN  32  30  92 E7        30.36F FOG     WCI  26
HARRISON       FRZ RAIN  27  26  96 SE8       30.33S FOG     WCI  19
BENTONVILLE    CLOUDY    30  27  86 S5        30.32S WCI  25
ROGERS         CLOUDY    29  28  96 SE5       30.31S FOG     WCI  24
SILOAM SPGS    CLOUDY    30  27  86 CALM      30.32F
HIGHFILL       CLOUDY    30  29  96 SE3       30.30S FOG
$$

ARZ004-005-016-010800-
NORTH CENTRAL ARKANSAS

CITY           SKY/WX    TMP DP  RH WIND       PRES   REMARKS
BATESVILLE     CLOUDY    28  25  86 CALM      30.38F
FLIPPIN        CLOUDY    28  23  80 CALM      30.36F
MTN HOME       FRZ RAIN  28  27  96 SE3       30.35F FOG
$$

ARZ040-041-010800-
WEST CENTRAL ARKANSAS

CITY           SKY/WX    TMP DP  RH WIND       PRES   REMARKS
MENA           CLOUDY    34  32  93 CALM      30.34S
MOUNT IDA      LGT RAIN  33  31  92 CALM      30.33S FOG
$$

ARZ009-017-025-026-028-010800-
NORTHEAST ARKANSAS

CITY           SKY/WX    TMP DP  RH WIND       PRES   REMARKS
CORNING        CLOUDY    30  27  86 NE9       30.39F WCI  22
JONESBORO      CLOUDY    31  24  75 N6        30.39F WCI  25
NEWPORT        CLOUDY    30  26  85 NE7       30.40S WCI  23
WALNUT RIDGE   CLOUDY    30  25  80 NE7       30.39F WCI  23
BLYTHEVILLE    CLOUDY    33  27  78 N12       30.39S WCI  24
$$

ARZ022-023-033-042-044-010800-
CENTRAL ARKANSAS

CITY           SKY/WX    TMP DP  RH WIND       PRES   REMARKS
LITTLE ROCK    FRZ DRZL  32  25  76 N7        30.38F WCI  25
N LITTLE ROCK    N/A     31  29  94 N5        30.38F WCI  26
JACKSONVILLE   DRIZZLE   32  25  74 N6        30.37F WCI  26
SEARCY         CLOUDY    31  27  85 N6        30.40F WCI  25
HOT SPRINGS    LGT RAIN  34  30  85 CALM      30.37R
RUSSELLVILLE   FRZ RAIN  32  30  92 CALM      30.37F FOG
CLINTON        CLOUDY    32  30  93 CALM      30.39F FOG
$$

ARZ036-010800-
EAST ARKANSAS

CITY           SKY/WX    TMP DP  RH WIND       PRES   REMARKS
WEST MEMPHIS   CLOUDY    33  28  81 N8        30.36F WCI  26
$$

ARZ050-053-066-070-073-010800-
SOUTHWEST ARKANSAS

CITY           SKY/WX    TMP DP  RH WIND       PRES   REMARKS
ARKADELPHIA    MIX PCPN  36  30  79 NE7       30.36S
CAMDEN         LGT RAIN  36  30  80 MISG      30.35R
TEXARKANA      LGT RAIN  36  31  82 NE7       30.32S
EL DORADO      CLOUDY    38  29  70 NE6       30.31F
DE QUEEN       CLOUDY    36  34  92 NE3       30.33F FOG
$$

ARZ056-057-069-010800-
SOUTHEAST ARKANSAS

CITY           SKY/WX    TMP DP  RH WIND       PRES   REMARKS
PINE BLUFF     CLOUDY    32  27  81 N10       30.36F WCI  24
STUTTGART      CLOUDY    32  25  74 N9        30.37F WCI  24
MONTICELLO     CLOUDY    37  28  70 NE12      30.33F

$$




USA.gov is the U.S. government's official web portal to all federal, state and local government web resources and services.